Date String (YYYY-MM-DD hh:mm:ss) UTC,Instrument flags,absolute air pressure of the measurement (hPa),sample flow rate (lpm),inlet stack bypass flow (lpm),air temperature of the measurement (°C),ambient temperature measured by the external sensor (°C),aerosol sample conditioner tube jacket temperature (°C),OPC LED temperature (°C),internal box temperature (°C),relative humidity of the measurement (%),span deviation,mass concentration of particles derived from Lorenz-Mie calculation of OPC scattering (μg/m³),mass concentration of particles derived from Lorenz-Mie calculation of OPC scattering (μg/m³),mass concentration of particles derived from Lorenz-Mie calculation of OPC scattering (μg/m³)
DateTimeUTC,F1_M11,P_M11,Q1_M11,Q2_M11,T1_M11,T2_M11,T3_M11,T4_M11,T5_M11,U1_M11,ZSPAN_M11,X2_M11,X0_M11,X1_M11
2024-04-13 12:00:00,SystemResetWarning,0826.9,5.00,000.00,026.3,025.4,000.0,034.8,028.1,011.7,0000.0,0003.92,0011.01,0002.33
2024-04-13 12:01:00,SystemResetWarning,0826.9,5.00,000.00,026.3,025.4,000.0,034.8,028.1,011.7,0000.0,0003.94,0011.04,0002.34
2024-04-13 12:02:00,SystemResetWarning,0826.9,5.00,000.00,026.3,025.4,000.0,034.8,028.1,011.7,0000.0,0003.94,0011.11,0002.34
2024-04-13 12:03:00,SystemResetWarning,0826.8,5.00,000.00,026.3,025.4,000.0,034.8,028.1,011.7,0000.0,0003.97,0011.23,0002.37
2024-04-13 12:04:00,SystemResetWarning,0826.8,5.01,000.00,026.3,025.4,000.0,034.8,028.1,011.7,0000.0,0003.98,0011.52,0002.39
2024-04-13 12:05:00,SystemResetWarning,0826.8,5.01,000.00,026.3,025.4,000.0,034.8,028.1,011.7,0000.0,0003.94,0011.06,0002.40
2024-04-13 12:06:00,SystemResetWarning,0826.8,5.01,000.00,026.3,025.4,000.0,034.8,028.1,011.7,0000.0,0003.98,0010.55,0002.41
2024-04-13 12:07:00,SystemResetWarning,0826.8,5.00,000.00,026.3,025.4,000.0,034.8,028.1,011.8,0000.0,0003.98,0011.33,0002.40
2024-04-13 12:08:00,SystemResetWarning,0826.8,5.00,000.00,026.2,025.4,000.0,034.8,028.1,011.8,0000.0,0003.96,0011.69,0002.41
2024-04-13 12:09:00,SystemResetWarning,0826.8,5.00,000.00,026.2,025.4,000.0,034.8,028.1,011.8,0000.0,0003.95,0012.00,0002.41
2024-04-13 12:10:00,SystemResetWarning,0826.8,4.99,000.00,026.3,025.4,000.0,034.8,028.1,011.7,0000.0,0003.97,0011.63,0002.40
2024-04-13 12:11:00,SystemResetWarning,0826.8,5.00,000.00,026.3,025.4,000.0,034.8,028.1,011.7,0000.0,0003.98,0011.61,0002.38
2024-04-13 12:12:00,SystemResetWarning,0826.8,5.00,000.00,026.3,025.4,000.0,034.8,028.1,011.8,0000.0,0003.97,0011.74,0002.38
2024-04-13 12:13:00,SystemResetWarning,0826.7,5.00,000.00,026.3,025.4,000.0,034.8,028.1,011.8,0000.0,0004.00,0012.00,0002.39
2024-04-13 12:14:00,SystemResetWarning,0826.8,5.00,000.00,026.3,025.4,000.0,034.8,028.1,011.8,0000.0,0004.01,0012.97,0002.39
2024-04-13 12:15:00,SystemResetWarning,0826.8,5.00,000.00,026.2,025.4,000.0,034.8,028.1,011.8,0000.0,0004.01,0012.87,0002.38
2024-04-13 12:16:00,SystemResetWarning,0826.8,5.00,000.00,026.2,025.4,000.0,034.8,028.1,011.8,0000.0,0004.05,0012.91,0002.37
2024-04-13 12:17:00,SystemResetWarning,0826.8,4.99,000.00,026.2,025.4,000.0,034.8,028.1,011.8,0000.0,0004.06,0013.26,0002.35
2024-04-13 12:18:00,SystemResetWarning,0826.8,5.00,000.00,026.2,025.4,000.0,034.7,028.1,011.8,0000.0,0004.03,0012.35,0002.34
2024-04-13 12:19:00,SystemResetWarning,0826.8,5.00,000.00,026.2,025.4,000.0,034.8,028.1,011.8,0000.0,0004.06,0012.06,0002.32
2024-04-13 12:20:00,SystemResetWarning,0826.8,5.00,000.00,026.2,025.4,000.0,034.8,028.1,012.0,0000.0,0004.04,0011.99,0002.33
2024-04-13 12:21:00,SystemResetWarning,0826.8,5.00,000.00,026.3,025.4,000.0,034.8,028.1,012.0,0000.0,0004.02,0011.95,0002.33
2024-04-13 12:22:00,SystemResetWarning,0826.8,5.01,000.00,026.3,025.4,000.0,034.8,028.1,011.9,0000.0,0004.08,0012.14,0002.35
2024-04-13 12:23:00,SystemResetWarning,0826.9,5.01,000.00,026.3,025.4,000.0,034.8,028.1,011.9,0000.0,0004.07,0011.89,0002.36
2024-04-13 12:24:00,SystemResetWarning,0826.8,5.00,000.00,026.3,025.4,000.0,034.8,028.1,012.0,0000.0,0004.01,0011.71,0002.35
2024-04-13 12:25:00,SystemResetWarning,0826.8,4.99,000.00,026.3,025.5,000.0,034.8,028.1,011.9,0000.0,0004.04,0011.14,0002.35
2024-04-13 12:26:00,SystemResetWarning,0826.8,5.00,000.00,026.3,025.5,000.0,034.8,028.1,012.0,0000.0,0004.13,0011.30,0002.37
2024-04-13 12:27:00,SystemResetWarning,0826.8,5.01,000.00,026.3,025.5,000.0,034.8,028.1,012.0,0000.0,0004.12,0011.86,0002.39
2024-04-13 12:28:00,SystemResetWarning,0826.8,5.00,000.00,026.3,025.5,000.0,034.8,028.1,012.0,0000.0,0004.09,0011.37,0002.41
2024-04-13 12:29:00,SystemResetWarning,0826.8,4.98,000.00,026.3,025.5,000.0,034.8,028.1,012.0,0000.0,0004.06,0011.59,0002.41
2024-04-13 12:30:00,SystemResetWarning,0826.8,5.00,000.00,026.3,025.5,000.0,034.8,028.1,012.1,0000.0,0004.04,0011.47,0002.42
2024-04-13 12:31:00,SystemResetWarning,0826.9,5.00,000.00,026.3,025.5,000.0,034.8,028.1,012.1,0000.0,0004.04,0011.19,0002.42
2024-04-13 12:32:00,SystemResetWarning,0826.9,5.01,000.00,026.3,025.5,000.0,034.8,028.1,012.1,0000.0,0004.03,0011.10,0002.42
2024-04-13 12:33:00,SystemResetWarning,0826.9,5.01,000.00,026.3,025.5,000.0,034.8,028.1,012.2,0000.0,0004.01,0011.04,0002.40
2024-04-13 12:34:00,SystemResetWarning,0826.9,5.00,000.00,026.3,025.5,000.0,034.8,028.1,012.2,0000.0,0004.02,0011.44,0002.39
2024-04-13 12:35:00,SystemResetWarning,0827.0,5.00,000.00,026.3,025.5,000.0,034.8,028.1,011.6,0000.0,0004.09,0011.46,0002.39
2024-04-13 12:36:00,SystemResetWarning,0827.0,5.00,000.00,026.3,025.5,000.0,034.8,028.1,011.5,0000.0,0004.03,0011.23,0002.35
2024-04-13 12:37:00,SystemResetWarning,0827.0,5.00,000.00,026.3,025.5,000.0,034.8,028.1,011.5,0000.0,0003.91,0011.31,0002.29
2024-04-13 12:38:00,SystemResetWarning,0827.0,5.00,000.00,026.3,025.5,000.0,034.8,028.2,011.5,0000.0,0003.84,0010.47,0002.25
2024-04-13 12:39:00,SystemResetWarning,0826.9,5.00,000.00,026.3,025.5,000.0,034.8,028.2,011.5,0000.0,0003.83,0010.34,0002.24
2024-04-13 12:40:00,SystemResetWarning,0827.0,5.00,000.00,026.3,025.5,000.0,034.8,028.2,011.6,0000.0,0003.80,0010.03,0002.21
2024-04-13 12:41:00,SystemResetWarning,0826.9,5.00,000.00,026.3,025.5,000.0,034.8,028.2,011.6,0000.0,0003.84,0010.56,0002.20
2024-04-13 12:42:00,SystemResetWarning,0827.0,5.01,000.00,026.3,025.5,000.0,034.8,028.2,011.6,0000.0,0003.81,0010.30,0002.19
2024-04-13 12:43:00,SystemResetWarning,0827.0,5.01,000.00,026.3,025.5,000.0,034.8,028.2,011.7,0000.0,0003.84,0010.30,0002.17
2024-04-13 12:44:00,SystemResetWarning,0827.0,5.01,000.00,026.3,025.5,000.0,034.8,028.2,011.7,0000.0,0003.84,0010.48,0002.17
2024-04-13 12:45:00,SystemResetWarning,0827.0,4.98,000.00,026.4,025.5,000.0,034.8,028.2,011.7,0000.0,0003.78,0010.35,0002.15
2024-04-13 12:46:00,SystemResetWarning,0826.9,4.99,000.00,026.4,025.5,000.0,034.8,028.2,011.7,0000.0,0003.79,0010.50,0002.15
2024-04-13 12:47:00,SystemResetWarning,0827.0,5.00,000.00,026.4,025.6,000.0,034.8,028.2,011.7,0000.0,0003.83,0010.31,0002.18
2024-04-13 12:48:00,SystemResetWarning,0827.0,5.01,000.00,026.4,025.6,000.0,034.8,028.2,011.7,0000.0,0003.87,0010.00,0002.21
2024-04-13 12:49:00,SystemResetWarning,0827.0,5.01,000.00,026.4,025.6,000.0,034.8,028.2,011.7,0000.0,0003.89,0010.23,0002.23
2024-04-13 12:50:00,SystemResetWarning,0827.0,5.00,000.00,026.4,025.6,000.0,034.8,028.2,011.7,0000.0,0003.87,0010.30,0002.21
2024-04-13 12:51:00,SystemResetWarning,0826.9,5.00,000.00,026.4,025.6,000.0,034.8,028.2,011.7,0000.0,0003.87,0010.31,0002.22
2024-04-13 12:52:00,SystemResetWarning,0827.0,5.00,000.00,026.4,025.6,000.0,034.8,028.2,011.6,0000.0,0003.84,0009.86,0002.23
2024-04-13 12:53:00,SystemResetWarning,0827.0,5.00,000.00,026.4,025.6,000.0,034.8,028.2,011.7,0000.0,0003.79,0009.86,0002.22
2024-04-13 12:54:00,SystemResetWarning,0827.0,5.00,000.00,026.4,025.6,000.0,034.8,028.2,011.7,0000.0,0003.73,0009.90,0002.21
2024-04-13 12:55:00,SystemResetWarning,0827.0,5.00,000.00,026.4,025.6,000.0,034.9,028.2,011.9,0000.0,0003.68,0009.50,0002.21
2024-04-13 12:56:00,SystemResetWarning,0827.0,5.00,000.00,026.4,025.6,000.0,034.9,028.2,011.8,0000.0,0003.69,0009.43,0002.22
2024-04-13 12:57:00,SystemResetWarning,0827.0,4.99,000.00,026.4,025.6,000.0,034.9,028.2,011.9,0000.0,0003.67,0009.61,0002.23
2024-04-13 12:58:00,SystemResetWarning,0826.9,5.00,000.00,026.4,025.6,000.0,034.9,028.2,011.8,0000.0,0003.64,0009.53,0002.20
2024-04-13 12:59:00,SystemResetWarning,0827.0,5.01,000.00,026.4,025.5,000.0,034.9,028.2,011.8,0000.0,0003.63,0009.70,0002.18
